SL-16 DEB, 23706

Orbit data source: Space-Track

SL-16 DEB, 23706 is space debris in LEO originally from a launch on Tue, 31 Oct 1995 UTC launched from the Tyuratam Missile And Space Complex (TTMTR). Debris objects in space refer to the collection of defunct objects orbiting the Earth. Examples of debris include non-operational satellites, rocket bodies, and fragments generated from explosions, collisions, or faulty payload assembly.

Loading next visibility...
SL-16 DEB details
Identifier
23706, 1995-058C
Orbit
LEO
Last TLE update8 hours ago
Origin
Flag of CISVKS (CIS)
ManufacturerYuzhnoe
MissionSpacecraft
Bus & MotorSEP MOTOR COVER, Unknown motor
Mass~0 kg wet, ~1 kg dry
Launch date (UTC)
1995-10-31 (29 years ago)
Launch vehicleUnknown
Launch site
Tyuratam Missile And Space Complex (TTMTR)
Object type
Payload
Rocket body
Debris
Shape & HBRUnknown
Radar Cross SectionSmall (<0.1 m²)

Expand to show TLE details & history

TLE from 8 hours ago
0 SL-16 DEB
1 23706U 95058C   24361.56396715  .00000193  00000-0  21660-3 0  9994
2 23706  71.0011  50.6628 0196350  87.3808  62.0473 13.74219940461457
Epoch: 2024-12-26T13:32Z
Definitive object data (Epoch: 2024-12-26T13:32:06.761Z)
Latitude26.92308°
Longitude-77.92356°
Altitude921.667 km
Speed7.427 km/s
True Right ascension14h 42m 35s
True Declination26° 47' 15"
Sunlit
Object was in daylight at TLE epoch
Visualization TLE readout
Latitude7.5402°
Longitude114.03266°
Altitude955.505 km
Speed7.39 km/s
Apparent Right ascension05h 36m 02s
Apparent Declination-18° 29' 36"
Sunlit
Object is in full shadow
Visualization observer readout
Local Sidereal Time20:58:41
Azimuth79.009° E
Elevation-41.652°
Doppler factor1
Orbital elements
Apogee altitude1,126.948 km
Perigee altitude837.899 km
Semi-major axis7,360.56 km
Eccentricity0.019635
Inclination71.0011°
RAAN50.6628°
Arg. of periapsis87.3808°
True anomaly64.05752°
Mean anomaly62.0473°
Eccentric anomaly63.05013°
Mean motion3.43698 °/min
BSTAR0.0002166
Orbital period104.74 mins
Loading maneuver chart data...
Loading historical data...
Loading historical data...
Loading historical data...
Loading historical data...
Loading historical data...
Loading historical data...
Loading historical data...

SL-16 DEB Visibility forecast

Observer location: undefined°, undefined

Span
Click to sort rows by Start time (UTC) header in descending order
Start Az.
Max El. time (UTC)
Max El. Az.
Max El.
End time (UTC)
End Az.
11 mins2024-12-27 04:38:40.284Z191.357° SSW2024-12-27 04:44:40.284Z100.29° ESE42.802°2024-12-27 04:49:40.284Z29.095° NE
6 mins2024-12-27 06:29:40.284Z277.401° WNW2024-12-27 06:31:40.284Z301.232° NW17.41°2024-12-27 06:35:40.284Z348.55° N
9 mins2024-12-27 13:50:40.284Z0.882° NNE2024-12-27 13:54:40.284Z67.665° E31.912°2024-12-27 13:59:40.284Z127.467° SE
8 mins2024-12-27 15:37:40.284Z306.802° NW2024-12-27 15:41:40.284Z250.468° W26.115°2024-12-27 15:45:40.284Z202.682° SW
|